Regional Weather Roundup
Issued by NWS Charleston, WV

Home | Current Version | Previous Version | Graphics & Text | Print | Product List | Glossary On
Versions: 1 2 3 4 5 6 7 8 9 10 11 12 13 14 15 16 17 18 19 20 21 22 23 24 25 26 27 28 29 30 31 32 33 34 35 36 37 38 39 40 41 42 43 44 45 46 47 48 49 50
000
ASUS41 KRLX 031210
RWRRLX
West Virginia Regional Weather Roundup
National Weather Service Charleston WV
800 AM EDT SUN MAY 03 2015

Note: "fair" indicates few or no clouds below 12,000 feet with no
significant weather and/or obstructions to visibility.

WVZ003-031300-
Northern Panhandle of West Virginia

CITY           SKY/WX    TMP DP  RH WIND       PRES   REMARKS
WHEELING       MOSUNNY   55  42  61 S5        30.13R
$$

WVZ009-031300-
Northwest West Virginia

CITY           SKY/WX    TMP DP  RH WIND       PRES   REMARKS
PARKERSBURG    SUNNY     49  44  83 CALM      30.17R
$$

WVZ006-031300-
Western West Virginia

CITY           SKY/WX    TMP DP  RH WIND       PRES   REMARKS
HUNTINGTON     SUNNY     47  45  93 CALM      30.15R
$$

WVZ015-031300-
West Central West Virginia

CITY           SKY/WX    TMP DP  RH WIND       PRES   REMARKS
CHARLESTON     MOSUNNY   47  43  86 CALM      30.16R
$$

WVZ022-031-031300-
North Central West Virginia

CITY           SKY/WX    TMP DP  RH WIND       PRES   REMARKS
CLARKSBURG     SUNNY     49  45  86 CALM      30.16R
MORGANTOWN     SUNNY     52  40  63 SW3       30.16R
$$

WVZ025-035-042-045-031300-
Southern West Virginia

CITY           SKY/WX    TMP DP  RH WIND       PRES   REMARKS
BECKLEY        SUNNY     50  36  58 CALM      30.20R
LOGAN            N/A     54  43  66 CALM      30.14S
BLUEFIELD      SUNNY     57  35  43 CALM      30.22R
LEWISBURG      PTSUNNY   45  39  78 CALM      30.22R
$$

WVZ047-031300-
Northern Mountains of West Virginia

CITY           SKY/WX    TMP DP  RH WIND       PRES   REMARKS
ELKINS         PTSUNNY   47  40  76 CALM      30.20R
$$

WVZ052-031300-
Eastern Panhandle of West Virginia

CITY           SKY/WX    TMP DP  RH WIND       PRES   REMARKS
MARTINSBURG    MOSUNNY   52  44  74 CALM      30.13R
PETERSBURG     CLOUDY    43  39  86 CALM      30.18R
$$



USA.gov is the U.S. government's official web portal to all federal, state and local government web resources and services.